TimeMST,TemperatureF,Dew PointF,Humidity,Sea Level PressureIn,VisibilityMPH,Wind Direction,Wind SpeedMPH,Gust SpeedMPH,PrecipitationIn,Events,Conditions,WindDirDegrees,DateUTC
12:53 AM,30.0,24.1,79,30.09,10.0,SSE,3.5,-,N/A,,Clear,160,2012-02-16 07:53:00
1:53 AM,27.0,21.9,81,30.12,10.0,ESE,5.8,-,N/A,,Clear,110,2012-02-16 08:53:00
2:53 AM,28.0,21.0,75,30.13,10.0,ESE,8.1,-,N/A,,Clear,120,2012-02-16 09:53:00
3:53 AM,28.0,19.0,69,30.14,10.0,SE,9.2,-,N/A,,Clear,130,2012-02-16 10:53:00
4:53 AM,26.1,19.9,78,30.17,10.0,SE,8.1,-,N/A,,Clear,140,2012-02-16 11:53:00
5:53 AM,25.0,19.0,78,30.20,10.0,SE,9.2,-,N/A,,Clear,140,2012-02-16 12:53:00
6:53 AM,24.1,18.0,77,30.23,10.0,SE,5.8,-,N/A,,Clear,130,2012-02-16 13:53:00
7:53 AM,26.1,18.0,71,30.26,10.0,SE,6.9,-,N/A,,Clear,130,2012-02-16 14:53:00
8:53 AM,30.0,19.0,64,30.27,10.0,SSE,5.8,-,N/A,,Clear,150,2012-02-16 15:53:00
9:53 AM,35.1,19.0,52,30.25,10.0,East,4.6,-,N/A,,Clear,100,2012-02-16 16:53:00
10:53 AM,37.9,19.0,47,30.23,10.0,North,3.5,-,N/A,,Clear,360,2012-02-16 17:53:00
11:53 AM,39.0,19.0,45,30.21,10.0,Variable,3.5,-,N/A,,Clear,0,2012-02-16 18:53:00
12:53 PM,41.0,19.9,43,30.17,10.0,Calm,Calm,-,N/A,,Clear,0,2012-02-16 19:53:00
2:53 PM,45.0,18.0,34,30.14,10.0,Calm,Calm,-,N/A,,Partly Cloudy,0,2012-02-16 21:53:00
3:53 PM,45.0,17.1,33,30.12,10.0,North,6.9,-,N/A,,Clear,10,2012-02-16 22:53:00
4:53 PM,45.0,17.1,33,30.12,10.0,Calm,Calm,-,N/A,,Clear,0,2012-02-16 23:53:00
6:53 PM,36.0,21.0,55,30.19,10.0,Calm,Calm,-,N/A,,Clear,0,2012-02-17 01:53:00
7:53 PM,34.0,21.0,59,30.21,10.0,SSE,4.6,-,N/A,,Clear,150,2012-02-17 02:53:00
8:53 PM,30.0,21.9,72,30.23,10.0,SE,5.8,-,N/A,,Clear,140,2012-02-17 03:53:00
9:53 PM,30.0,19.9,66,30.21,10.0,SE,10.4,-,N/A,,Clear,140,2012-02-17 04:53:00
10:53 PM,28.9,19.9,69,30.19,10.0,SE,9.2,-,N/A,,Clear,130,2012-02-17 05:53:00
11:53 PM,28.0,19.0,69,30.18,10.0,SE,9.2,-,N/A,,Clear,130,2012-02-17 06:53:00